Location: Rayville (historical)
(39.9992°N, 99.6815°W)
Time: 08:07:07
(UTC+00:00)

USA 267 - Pass Details

Date: 18 February 2020
Orbit: 1101 x 1107 km, 123.0° (Epoch: 30 March)

Event Time Altitude Azimuth Distance (km) Brightness Sun altitude
Rises 10:11:00 0° 133° (SE) 3,905 6.5 -38.1°
Reaches altitude 10° 10:13:28 10° 134° (SE) 2,950 5.8 -37.7°
Enters shadow 10:16:50 34° 135° (SE) 1,731 4.4 -37.0°
